| time (UTC) | temp C | wind direction | speed KPH | gust KPH | rain 1hr cm | rain 24hr cm | rain mn cm | humidity % | barometer mb |
| 20260503013110 | 33 | 0.0 | 0.0 | 0.00 | 0.00 | 0.00 | 12 | 1008.3 | |
| 20260503012007 | 33 | 0.0 | 0.0 | 0.00 | 0.00 | 0.00 | 12 | 1008.2 | |
| 20260503011006 | 33 | 0.0 | 0.0 | 0.00 | 0.00 | 0.00 | 12 | 1008.2 | |
| 20260503005717 | 33 | 0.0 | 0.0 | 0.00 | 0.00 | 0.00 | 12 | 1008.3 | |
| 20260503004716 | 33 | 0.0 | 0.0 | 0.00 | 0.00 | 0.00 | 12 | 1008.3 | |
| 20260503003715 | 34 | 0.0 | 0.0 | 0.00 | 0.00 | 0.00 | 12 | 1008.2 | |
| 20260503002714 | 34 | 0.0 | 0.0 | 0.00 | 0.00 | 0.00 | 12 | 1008.2 | |
| 20260503001713 | 35 | 0.0 | 0.0 | 0.00 | 0.00 | 0.00 | 12 | 1008.3 | |
| 20260503000713 | 35 | 0.0 | 0.0 | 0.00 | 0.00 | 0.00 | 12 | 1008.3 | |
| 20260502235711 | 35 | 0.0 | 0.0 | 0.00 | 0.00 | 0.00 | 12 | 1008.3 | |
| 20260502232028 | 35 | 0.0 | 0.0 | 0.00 | 0.00 | 0.00 | 12 | 1008.8 | |
| 20260502231026 | 35 | 0.0 | 0.0 | 0.00 | 0.00 | 0.00 | 12 | 1008.8 | |
| 20260502225955 | 35 | 0.0 | 0.0 | 0.00 | 0.00 | 0.00 | 12 | 1008.7 | |
| 20260502224954 | 35 | 0.0 | 0.0 | 0.00 | 0.00 | 0.00 | 12 | 1008.7 | |
| 20260502223953 | 35 | 0.0 | 0.0 | 0.00 | 0.00 | 0.00 | 12 | 1009.1 | |
| 20260502222951 | 35 | 0.0 | 0.0 | 0.00 | 0.00 | 0.00 | 12 | 1009.1 | |
| 20260502221950 | 35 | 0.0 | 0.0 | 0.00 | 0.00 | 0.00 | 12 | 1009.4 | |
| 20260502220948 | 35 | 0.0 | 0.0 | 0.00 | 0.00 | 0.00 | 12 | 1009.4 | |
| 20260502215947 | 35 | 0.0 | 0.0 | 0.00 | 0.00 | 0.00 | 12 | 1009.4 | |
| 20260502214915 | 35 | 0.0 | 0.0 | 0.00 | 0.00 | 0.00 | 12 | 1009.7 | |
| 20260502213915 | 35 | 0.0 | 0.0 | 0.00 | 0.00 | 0.00 | 12 | 1010.1 | |
| 20260502212913 | 34 | 0.0 | 0.0 | 0.00 | 0.00 | 0.00 | 12 | 1010.1 | |
| 20260502211912 | 34 | 0.0 | 0.0 | 0.00 | 0.00 | 0.00 | 12 | 1010.1 | |
| 20260502210912 | 34 | 0.0 | 0.0 | 0.00 | 0.00 | 0.00 | 12 | 1010.4 | |
| 20260502205910 | 33 | 0.0 | 0.0 | 0.00 | 0.00 | 0.00 | 12 | 1010.4 | |
| 20260502204909 | 34 | 0.0 | 0.0 | 0.00 | 0.00 | 0.00 | 12 | 1010.8 | |
| 20260502203909 | 34 | 0.0 | 0.0 | 0.00 | 0.00 | 0.00 | 14 | 1010.8 | |
| 20260502202836 | 34 | 0.0 | 0.0 | 0.00 | 0.00 | 0.00 | 15 | 1011.2 | |
| 20260502201835 | 34 | 0.0 | 0.0 | 0.00 | 0.00 | 0.00 | 15 | 1011.1 | |
| 20260502200835 | 34 | 0.0 | 0.0 | 0.00 | 0.00 | 0.00 | 16 | 1011.1 | |
| 20260502195834 | 33 | 0.0 | 0.0 | 0.00 | 0.00 | 0.00 | 16 | 1011.1 | |
| 20260502194833 | 33 | 0.0 | 0.0 | 0.00 | 0.00 | 0.00 | 16 | 1011.4 | |
| 20260502193800 | 33 | 0.0 | 0.0 | 0.00 | 0.00 | 0.00 | 16 | 1011.5 | |
| 20260502192758 | 33 | 0.0 | 0.0 | 0.00 | 0.00 | 0.00 | 17 | 1011.9 | |
| 20260502191757 | 33 | 0.0 | 0.0 | 0.00 | 0.00 | 0.00 | 17 | 1011.9 | |
| 20260502190756 | 32 | 0.0 | 0.0 | 0.00 | 0.00 | 0.00 | 17 | 1011.9 | |
| 20260502185755 | 33 | 0.0 | 0.0 | 0.00 | 0.00 | 0.00 | 17 | 1012.2 | |
| 20260502184754 | 32 | 0.0 | 0.0 | 0.00 | 0.00 | 0.00 | 19 | 1012.2 | |
| 20260502183753 | 32 | 0.0 | 0.0 | 0.00 | 0.00 | 0.00 | 19 | 1012.5 | |
| 20260502182751 | 32 | 0.0 | 0.0 | 0.00 | 0.00 | 0.00 | 20 | 1012.5 | |
| 20260502181749 | 32 | 0.0 | 0.0 | 0.00 | 0.00 | 0.00 | 20 | 1012.8 | |
| 20260502180748 | 32 | 0.0 | 0.0 | 0.00 | 0.00 | 0.00 | 20 | 1012.8 | |
| 20260502163637 | 30 | 0.0 | 0.0 | 0.00 | 0.00 | 0.00 | 23 | 1013.1 | |
| 20260502162636 | 30 | 0.0 | 0.0 | 0.00 | 0.00 | 0.00 | 24 | 1013.1 | |
| 20260502161635 | 29 | 0.0 | 0.0 | 0.00 | 0.00 | 0.00 | 24 | 1013.1 | |
| 20260502160635 | 29 | 0.0 | 0.0 | 0.00 | 0.00 | 0.00 | 24 | 1013.1 | |
| 20260502151629 | 28 | 0.0 | 0.0 | 0.00 | 0.00 | 0.00 | 24 | 1012.7 | |
| 20260502150556 | 27 | 0.0 | 0.0 | 0.00 | 0.00 | 0.00 | 23 | 1012.7 | |
| 20260502130400 | 22 | 0.0 | 0.0 | 0.00 | 0.00 | 0.00 | 22 | 1010.8 | |
| 20260502123325 | 22 | 0.0 | 0.0 | 0.00 | 0.00 | 0.00 | 23 | 1010.4 | |
| 20260502122324 | 22 | 0.0 | 0.0 | 0.00 | 0.00 | 0.00 | 23 | 1010.4 | |
| 20260502121323 | 22 | 0.0 | 0.0 | 0.00 | 0.00 | 0.00 | 22 | 1010.5 | |
| 20260502120322 | 22 | 0.0 | 0.0 | 0.00 | 0.00 | 0.00 | 22 | 1010.5 | |
| 20260502115320 | 23 | 0.0 | 0.0 | 0.00 | 0.00 | 0.00 | 22 | 1010.2 | |
| 20260502114318 | 23 | 0.0 | 0.0 | 0.00 | 0.00 | 0.00 | 21 | 1010.2 | |
| 20260502113306 | 23 | 0.0 | 0.0 | 0.00 | 0.00 | 0.00 | 21 | 1010.2 | |
| 20260502112306 | 23 | 0.0 | 0.0 | 0.00 | 0.00 | 0.00 | 21 | 1010.2 | |
| 20260502111304 | 23 | 0.0 | 0.0 | 0.00 | 0.00 | 0.00 | 21 | 1010.2 | |
| 20260502110231 | 23 | 0.0 | 0.0 | 0.00 | 0.00 | 0.00 | 22 | 1010.2 | |
| 20260502105230 | 23 | 0.0 | 0.0 | 0.00 | 0.00 | 0.00 | 22 | 1010.2 | |
| 20260502104229 | 23 | 0.0 | 0.0 | 0.00 | 0.00 | 0.00 | 22 | 1010.2 | |
| 20260502103228 | 23 | 0.0 | 0.0 | 0.00 | 0.00 | 0.00 | 22 | 1009.9 | |
| 20260502102227 | 23 | 0.0 | 0.0 | 0.00 | 0.00 | 0.00 | 23 | 1009.8 | |
| 20260502101226 | 23 | 0.0 | 0.0 | 0.00 | 0.00 | 0.00 | 23 | 1009.8 | |
| 20260502100225 | 23 | 0.0 | 0.0 | 0.00 | 0.00 | 0.00 | 23 | 1009.8 | |
| 20260502091221 | 23 | 0.0 | 0.0 | 0.00 | 0.00 | 0.00 | 22 | 1009.5 | |
| 20260502090220 | 23 | 0.0 | 0.0 | 0.00 | 0.00 | 0.00 | 22 | 1009.5 | |
| 20260502071138 | 26 | 0.0 | 0.0 | 0.00 | 0.00 | 0.00 | 16 | 1008.8 | |
| 20260502070137 | 26 | 0.0 | 0.0 | 0.00 | 0.00 | 0.00 | 16 | 1008.9 | |
| 20260502065136 | 26 | 0.0 | 0.0 | 0.00 | 0.00 | 0.00 | 16 | 1008.9 | |
| 20260502064134 | 26 | 0.0 | 0.0 | 0.00 | 0.00 | 0.00 | 16 | 1008.8 | |
| 20260502063102 | 26 | 0.0 | 0.0 | 0.00 | 0.00 | 0.00 | 16 | 1008.8 | |
| 20260502062101 | 26 | 0.0 | 0.0 | 0.00 | 0.00 | 0.00 | 16 | 1008.8 | |
| 20260502061100 | 26 | 0.0 | 0.0 | 0.00 | 0.00 | 0.00 | 17 | 1008.7 | |
| 20260502060058 | 26 | 0.0 | 0.0 | 0.00 | 0.00 | 0.00 | 17 | 1008.7 | |
| 20260502055027 | 27 | 0.0 | 0.0 | 0.00 | 0.00 | 0.00 | 16 | 1008.4 | |
| 20260502054026 | 27 | 0.0 | 0.0 | 0.00 | 0.00 | 0.00 | 15 | 1008.4 | |
| 20260502052953 | 27 | 0.0 | 0.0 | 0.00 | 0.00 | 0.00 | 16 | 1008.4 | |
| 20260502051953 | 26 | 0.0 | 0.0 | 0.00 | 0.00 | 0.00 | 16 | 1008.4 | |
| 20260502050952 | 27 | 0.0 | 0.0 | 0.00 | 0.00 | 0.00 | 16 | 1008.4 | |
| 20260502045951 | 27 | 0.0 | 0.0 | 0.00 | 0.00 | 0.00 | 16 | 1008.4 | |
| 20260502044950 | 27 | 0.0 | 0.0 | 0.00 | 0.00 | 0.00 | 15 | 1008.4 | |
| 20260502043949 | 27 | 0.0 | 0.0 | 0.00 | 0.00 | 0.00 | 15 | 1008.4 | |
| 20260502042948 | 28 | 0.0 | 0.0 | 0.00 | 0.00 | 0.00 | 15 | 1008.0 | |
| 20260502041947 | 28 | 0.0 | 0.0 | 0.00 | 0.00 | 0.00 | 15 | 1008.0 | |
| 20260502040915 | 28 | 0.0 | 0.0 | 0.00 | 0.00 | 0.00 | 15 | 1008.0 | |
| 20260502035843 | 28 | 0.0 | 0.0 | 0.00 | 0.00 | 0.00 | 15 | 1008.0 | |
| 20260502034842 | 28 | 0.0 | 0.0 | 0.00 | 0.00 | 0.00 | 15 | 1007.7 | |
| 20260502033841 | 28 | 0.0 | 0.0 | 0.00 | 0.00 | 0.00 | 15 | 1007.7 | |
| 20260502032840 | 28 | 0.0 | 0.0 | 0.00 | 0.00 | 0.00 | 15 | 1007.7 | |
| 20260502031807 | 28 | 0.0 | 0.0 | 0.00 | 0.00 | 0.00 | 16 | 1007.3 | |
| 20260502030806 | 28 | 0.0 | 0.0 | 0.00 | 0.00 | 0.00 | 16 | 1007.3 | |
| 20260502025805 | 28 | 0.0 | 0.0 | 0.00 | 0.00 | 0.00 | 16 | 1006.9 | |
| 20260502022154 | 30 | 0.0 | 0.0 | 0.00 | 0.00 | 0.00 | 16 | 1007.0 | |
| 20260502021152 | 30 | 0.0 | 0.0 | 0.00 | 0.00 | 0.00 | 16 | 1007.0 | |
| 20260502020152 | 31 | 0.0 | 0.0 | 0.00 | 0.00 | 0.00 | 16 | 1006.6 | |
| 20260502015151 | 31 | 0.0 | 0.0 | 0.00 | 0.00 | 0.00 | 16 | 1007.0 | |
| 20260502014149 | 31 | 0.0 | 0.0 | 0.00 | 0.00 | 0.00 | 15 | 1006.6 |